RYR8KQ LBWN-EPKT

Flight info

Callsign RYR8KQ
Flight time N/A
Altitude 34000
Route BALIK L619 ARGES DCT ASNEL DCT STJ DCT TGM DCT KARIL DCT LENOV
Aircraft B738/M-SDE2E3FGHIRWXY/LB1

Departure

Time 2026-04-30 18:02
Airport Varna Airport (LBWN)

Arrival

Time N/A
Airport Katowice Wojciech Korfanty International Airport (EPKT)
Time Latitude Longitude Altitude Speed Heading
2026-04-30 17:39 43.23615 27.82572 221 ft 0 kts
2026-04-30 17:50 43.23573 27.82531 222 ft 4 kts 94°
2026-04-30 17:51 43.23573 27.82524 222 ft 2 kts 97°
2026-04-30 17:54 43.23541 27.82561 221 ft 6 kts 173°
2026-04-30 17:55 43.23467 27.82405 221 ft 14 kts 292°
2026-04-30 17:56 43.23543 27.81349 222 ft 29 kts 277°
2026-04-30 17:57 43.23519 27.80926 221 ft 0 kts 195°
2026-04-30 17:59 43.23434 27.80950 221 ft 0 kts 152°
2026-04-30 18:00 43.23314 27.81189 220 ft 0 kts 97°
2026-04-30 18:01 43.23222 27.82225 222 ft 124 kts 96°
2026-04-30 18:02 43.22824 27.86643 2259 ft 157 kts 88°
2026-04-30 18:02 43.25890 27.88224 2937 ft 222 kts 349°
2026-04-30 18:03 43.30822 27.86367 4501 ft 258 kts 348°
2026-04-30 18:04 43.36134 27.84462 6002 ft 269 kts 347°
2026-04-30 18:05 43.42170 27.79034 6892 ft 276 kts 306°
2026-04-30 18:06 43.46597 27.70497 9904 ft 274 kts 305°
2026-04-30 18:07 43.51135 27.61814 10009 ft 277 kts 305°
2026-04-30 18:08 43.54619 27.55148 10066 ft 315 kts 305°
2026-04-30 18:09 43.60010 27.44811 11873 ft 337 kts 304°
2026-04-30 18:10 43.65578 27.34097 14399 ft 350 kts 303°
2026-04-30 18:11 43.72434 27.24303 16944 ft 365 kts 316°
2026-04-30 18:11 43.78422 27.17526 18698 ft 375 kts 314°
2026-04-30 18:12 43.84451 27.10543 20269 ft 382 kts 313°
2026-04-30 18:13 43.88538 27.05774 21333 ft 386 kts 313°
2026-04-30 18:13 43.94034 26.99344 22693 ft 391 kts 311°
2026-04-30 18:14 43.98933 26.93599 23819 ft 396 kts 311°
2026-04-30 18:15 44.05282 26.86138 24989 ft 402 kts 310°
2026-04-30 18:15 44.11789 26.78688 26164 ft 410 kts 313°
2026-04-30 18:16 44.16377 26.73777 26884 ft 414 kts 313°
2026-04-30 18:16 44.20950 26.68861 27576 ft 417 kts 313°
2026-04-30 18:17 44.23254 26.66364 27915 ft 419 kts 313°